Weather History for KPVW - November, 2012

Change the Weather History Date:

Thursday, November 8, 2012

  Actual Average Record
Temperature  
Mean Temperature 62 °F -  
Max Temperature 82 °F 63 °F 87 °F (2005)
Min Temperature 41 °F 38 °F 20 °F (1955)
Degree Days  
Heating Degree Days 4    
Growing Degree Days 12 (Base 50)    
Moisture  
Dew Point 33 °F    
Average Humidity 43    
Maximum Humidity 87    
Minimum Humidity 10    
Precipitation  
Precipitation 0.00 in - - ()
Sea Level Pressure  
Sea Level Pressure 29.94 in    
Wind  
Wind Speed 9 mph (SW)    
Max Wind Speed 18 mph    
Max Gust Speed 22 mph    
Visibility 10 miles    
Events      
Averages and records for this station are not official NWS values.
T = Trace of Precipitation, MM = Missing Value Source: NWS Daily Summary

Daily Weather History Graph

Daily Weather History Graph

Search for Another Location

Airport or City:

Trip Planner

Search our weather history database for the weather conditions in past years. The results will help you decide how hot, cold, wet, or windy it might be!

Date:

Astronomy

Nov. 08, 2012 Rise Set
Actual Time 7:13 AM CST 5:47 PM CST
Civil Twilight 6:47 AM CST 6:13 PM CST
Nautical Twilight 6:17 AM CST 6:43 PM CST
Astronomical Twilight 5:47 AM CST 7:13 PM CST
Moon 1:26 AM CST (11/8) 2:15 PM CST (11/8)
Length of Visible Light 11h 26m
Length of Day
10h 33m
Waning Crescent, 32% of the Moon is Illuminated
Nov 8
Waning Crescent
Nov 13
New
Nov 20
First Quarter
Nov 28
Full
Dec 6
Last Quarter

Hourly Weather History & Observations

Time (CST) Temp. Windchill Dew Point Humidity Pressure Visibility Wind Dir Wind Speed Gust Speed Precip Events Conditions
12:15 AM 51.8 °F - 39.2 °F 62% 29.99 in 10.0 mi SSW 6.9 mph - N/A   Clear
12:35 AM 53.6 °F - 41.0 °F 62% 29.99 in 10.0 mi SSW 8.1 mph - N/A   Clear
12:55 AM 53.6 °F - 41.0 °F 62% 29.99 in 10.0 mi SSW 10.4 mph - N/A   Clear
1:15 AM 53.6 °F - 41.0 °F 62% 29.98 in 10.0 mi SSW 11.5 mph - N/A   Clear
1:35 AM 53.6 °F - 42.8 °F 67% 29.98 in 10.0 mi SSW 10.4 mph - N/A   Clear
1:55 AM 53.6 °F - 42.8 °F 67% 29.98 in 10.0 mi SSW 9.2 mph - N/A   Clear
2:15 AM 51.8 °F - 41.0 °F 67% 29.99 in 10.0 mi SW 6.9 mph - N/A   Clear
2:35 AM 51.8 °F - 41.0 °F 67% 29.99 in 10.0 mi SW 5.8 mph - N/A   Clear
2:55 AM 50.0 °F - 41.0 °F 71% 29.98 in 10.0 mi SSW 6.9 mph - N/A   Clear
3:15 AM 50.0 °F - 41.0 °F 71% 29.98 in 10.0 mi SW 6.9 mph - N/A   Clear
3:35 AM 50.0 °F - 41.0 °F 71% 29.97 in 10.0 mi SW 5.8 mph - N/A   Clear
3:55 AM 50.0 °F - 41.0 °F 71% 29.97 in 10.0 mi SW 4.6 mph - N/A   Clear
4:15 AM 46.4 °F 45.2 °F 39.2 °F 76% 29.97 in 10.0 mi West 3.5 mph - N/A   Clear
4:35 AM 42.8 °F 41.1 °F 37.4 °F 81% 29.97 in 10.0 mi West 3.5 mph - N/A   Clear
4:55 AM 44.6 °F 43.1 °F 37.4 °F 76% 29.97 in 10.0 mi SW 3.5 mph - N/A   Clear
5:15 AM 41.0 °F 38.0 °F 35.6 °F 81% 29.98 in 10.0 mi West 4.6 mph - N/A   Clear
5:35 AM 41.0 °F 38.0 °F 35.6 °F 81% 29.98 in 10.0 mi WSW 4.6 mph - N/A   Clear
6:15 AM 41.0 °F 39.0 °F 35.6 °F 81% 29.97 in 10.0 mi SW 3.5 mph - N/A   Clear
6:35 AM 41.0 °F 38.0 °F 35.6 °F 81% 29.97 in 10.0 mi SW 4.6 mph - N/A   Clear
6:55 AM 41.0 °F 36.4 °F 37.4 °F 87% 29.97 in 10.0 mi WSW 6.9 mph - N/A   Clear
7:15 AM 41.0 °F 36.4 °F 37.4 °F 87% 29.98 in 10.0 mi WSW 6.9 mph - N/A   Clear
7:35 AM 42.8 °F 39.3 °F 37.4 °F 81% 29.98 in 10.0 mi WSW 5.8 mph - N/A   Clear
7:55 AM 42.8 °F 40.1 °F 39.2 °F 87% 29.99 in 10.0 mi WSW 4.6 mph - N/A   Clear
8:15 AM 50.0 °F - 42.8 °F 76% 29.99 in 10.0 mi WSW 4.6 mph - N/A   Clear
8:35 AM 51.8 °F - 42.8 °F 71% 29.99 in 10.0 mi WSW 6.9 mph - N/A   Clear
8:55 AM 55.4 °F - 42.8 °F 63% 30.00 in 10.0 mi WSW 9.2 mph - N/A   Clear
9:15 AM 55.4 °F - 41.0 °F 58% 30.00 in 10.0 mi WSW 9.2 mph - N/A   Clear
9:35 AM 59.0 °F - 37.4 °F 45% 30.00 in 10.0 mi WSW 11.5 mph - N/A   Clear
9:55 AM 62.6 °F - 35.6 °F 37% 30.00 in 10.0 mi WSW 9.2 mph - N/A   Clear
10:15 AM 62.6 °F - 33.8 °F 34% 30.00 in 10.0 mi WSW 10.4 mph - N/A   Clear
10:35 AM 68.0 °F - 35.6 °F 30% 30.00 in 10.0 mi WSW 11.5 mph - N/A   Clear
10:55 AM 69.8 °F - 33.8 °F 27% 29.99 in 10.0 mi WSW 12.7 mph - N/A   Clear
11:15 AM 73.4 °F - 32.0 °F 22% 29.98 in 10.0 mi WSW 16.1 mph - N/A   Clear
11:35 AM 73.4 °F - 30.2 °F 20% 29.97 in 10.0 mi WSW 16.1 mph - N/A   Clear
11:55 AM 73.4 °F - 30.2 °F 20% 29.96 in 10.0 mi WSW 12.7 mph - N/A   Clear
12:15 PM 77.0 °F - 26.6 °F 16% 29.95 in 10.0 mi WSW 15.0 mph - N/A   Clear
12:55 PM 77.0 °F - 26.6 °F 16% 29.94 in 10.0 mi WSW 12.7 mph - N/A   Clear
1:15 PM 78.8 °F - 26.6 °F 15% 29.92 in 10.0 mi WSW 13.8 mph 19.6 mph N/A   Clear
1:35 PM 78.8 °F - 24.8 °F 14% 29.91 in 10.0 mi WSW 13.8 mph 17.3 mph N/A   Clear
1:55 PM 80.6 °F - 24.8 °F 13% 29.91 in 10.0 mi West 12.7 mph - N/A   Clear
2:15 PM 82.4 °F - 23.0 °F 11% 29.90 in 10.0 mi WSW 10.4 mph - N/A   Clear
2:35 PM 80.6 °F - 23.0 °F 12% 29.90 in 10.0 mi West 17.3 mph 20.7 mph N/A   Clear
2:55 PM 82.4 °F - 21.2 °F 10% 29.89 in 10.0 mi WSW 12.7 mph 20.7 mph N/A   Clear
3:15 PM 82.4 °F - 21.2 °F 10% 29.89 in 10.0 mi WSW 18.4 mph - N/A   Clear
3:35 PM 82.4 °F - 21.2 °F 10% 29.89 in 10.0 mi SW 16.1 mph - N/A   Clear
3:55 PM 82.4 °F - 21.2 °F 10% 29.88 in 10.0 mi SW 12.7 mph - N/A   Clear
4:15 PM 82.4 °F - 21.2 °F 10% 29.88 in 10.0 mi WSW 13.8 mph - N/A   Clear
4:35 PM 80.6 °F - 21.2 °F 11% 29.88 in 10.0 mi West 10.4 mph - N/A   Clear
4:55 PM 78.8 °F - 23.0 °F 13% 29.88 in 10.0 mi WSW 6.9 mph - N/A   Clear
5:15 PM 77.0 °F - 21.2 °F 12% 29.88 in 10.0 mi SW 4.6 mph - N/A   Clear
5:35 PM 73.4 °F - 23.0 °F 15% 29.88 in 10.0 mi SSW 4.6 mph - N/A   Clear
5:55 PM 71.6 °F - 23.0 °F 16% 29.88 in 10.0 mi SSW 5.8 mph - N/A   Clear
6:15 PM 69.8 °F - 24.8 °F 18% 29.89 in 10.0 mi SSW 5.8 mph - N/A   Clear
6:35 PM 68.0 °F - 26.6 °F 21% 29.89 in 10.0 mi SSW 4.6 mph - N/A   Clear
6:55 PM 64.4 °F - 24.8 °F 22% 29.90 in 10.0 mi SSW 5.8 mph - N/A   Clear
7:15 PM 64.4 °F - 26.6 °F 24% 29.90 in 10.0 mi SW 6.9 mph - N/A   Clear
7:35 PM 64.4 °F - 26.6 °F 24% 29.90 in 10.0 mi SW 6.9 mph - N/A   Clear
7:55 PM 64.4 °F - 28.4 °F 26% 29.91 in 10.0 mi SSW 5.8 mph - N/A   Clear
8:15 PM 64.4 °F - 28.4 °F 26% 29.90 in 10.0 mi SSW 6.9 mph - N/A   Clear
8:35 PM 64.4 °F - 30.2 °F 28% 29.91 in 10.0 mi SSW 8.1 mph - N/A   Clear
8:55 PM 64.4 °F - 30.2 °F 28% 29.91 in 10.0 mi SSW 10.4 mph - N/A   Clear
9:15 PM 68.0 °F - 32.0 °F 26% 29.91 in 10.0 mi SSW 10.4 mph - N/A   Clear
9:35 PM 64.4 °F - 32.0 °F 30% 29.91 in 10.0 mi SSW 10.4 mph - N/A   Clear
9:55 PM 62.6 °F - 33.8 °F 34% 29.91 in 10.0 mi SSW 11.5 mph - N/A   Clear
10:15 PM 64.4 °F - 39.2 °F 40% 29.91 in 10.0 mi SSW 11.5 mph - N/A   Clear
10:35 PM 68.0 °F - 42.8 °F 40% 29.91 in 10.0 mi SSW 12.7 mph 19.6 mph N/A   Clear
10:55 PM 68.0 °F - 44.6 °F 43% 29.91 in 10.0 mi SSW 15.0 mph - N/A   Clear
11:15 PM 64.4 °F - 44.6 °F 49% 29.92 in 10.0 mi SSW 13.8 mph - N/A   Clear
11:35 PM 64.4 °F - 46.4 °F 52% 29.92 in 10.0 mi SSW 15.0 mph 21.9 mph N/A   Clear
11:55 PM 62.6 °F - 46.4 °F 55% 29.92 in 10.0 mi SSW 12.7 mph - N/A   Clear